PHENX84 RPLB-RPUX

Flight info

Callsign PHENX84
Flight time 0h 33m
Altitude 2000
Route RPLB N0447A030 RPUF D169J RPUX
Aircraft EC45/L-SDFGRY/C

Departure

Time 2026-04-12 09:59
Airport Subic Bay International Airport / Naval Air Station Cubi Point (RPLB)

Arrival

Time 2026-04-12 10:33
Airport Plaridel Airport (RPUX)
Time Latitude Longitude Altitude Speed Heading
2026-04-12 09:48 14.79684 120.28374 48 ft 0 kts 245°
2026-04-12 09:55 14.79683 120.28372 50 ft 1 kts 247°
2026-04-12 09:55 14.79681 120.28366 56 ft 1 kts 248°
2026-04-12 09:56 14.79677 120.28323 146 ft 17 kts 248°
2026-04-12 09:56 14.79634 120.28108 229 ft 38 kts 250°
2026-04-12 09:56 14.79586 120.27856 379 ft 36 kts 259°
2026-04-12 09:56 14.79669 120.27625 448 ft 34 kts 313°
2026-04-12 09:57 14.79867 120.27507 473 ft 33 kts
2026-04-12 09:57 14.80104 120.27516 472 ft 36 kts 31°
2026-04-12 09:57 14.80347 120.27650 460 ft 51 kts 59°
2026-04-12 09:57 14.80659 120.27990 448 ft 76 kts 57°
2026-04-12 09:58 14.80974 120.28423 443 ft 74 kts 57°
2026-04-12 09:58 14.81256 120.28868 434 ft 74 kts 58°
2026-04-12 09:58 14.81528 120.29322 431 ft 74 kts 58°
2026-04-12 09:58 14.81795 120.29779 432 ft 74 kts 58°
2026-04-12 09:59 14.82062 120.30237 435 ft 74 kts 58°
2026-04-12 09:59 14.82328 120.30695 426 ft 74 kts 58°
2026-04-12 09:59 14.82595 120.31154 504 ft 75 kts 59°
2026-04-12 09:59 14.82824 120.31543 893 ft 65 kts 59°
2026-04-12 10:00 14.83049 120.32023 1020 ft 77 kts 64°
2026-04-12 10:00 14.83304 120.32515 1010 ft 76 kts 59°
2026-04-12 10:00 14.83563 120.32983 1005 ft 76 kts 59°
2026-04-12 10:00 14.83826 120.33457 1002 ft 76 kts 59°
2026-04-12 10:01 14.84091 120.33932 1003 ft 76 kts 59°
2026-04-12 10:01 14.84356 120.34405 1001 ft 76 kts 59°
2026-04-12 10:01 14.84621 120.34879 1000 ft 76 kts 59°
2026-04-12 10:01 14.84886 120.35354 1000 ft 76 kts 59°
2026-04-12 10:02 14.85152 120.35829 1032 ft 76 kts 60°
2026-04-12 10:02 14.85420 120.36310 1289 ft 78 kts 60°
2026-04-12 10:02 14.85685 120.36798 1412 ft 78 kts 59°
2026-04-12 10:02 14.85948 120.37283 1467 ft 77 kts 59°
2026-04-12 10:03 14.86213 120.37766 1523 ft 77 kts 59°
2026-04-12 10:03 14.86506 120.38302 1561 ft 101 kts 59°
2026-04-12 10:03 14.86946 120.38973 1612 ft 117 kts 52°
2026-04-12 10:03 14.87469 120.39599 1617 ft 115 kts 42°
2026-04-12 10:04 14.88065 120.40151 1623 ft 115 kts 40°
2026-04-12 10:04 14.88670 120.40691 1619 ft 116 kts 40°
2026-04-12 10:04 14.89299 120.41253 1624 ft 120 kts 40°
2026-04-12 10:04 14.89931 120.41815 1625 ft 120 kts 40°
2026-04-12 10:05 14.90564 120.42375 1625 ft 120 kts 40°
2026-04-12 10:05 14.91197 120.42934 1626 ft 120 kts 40°
2026-04-12 10:05 14.91828 120.43492 1626 ft 120 kts 40°
2026-04-12 10:05 14.92462 120.44052 1627 ft 120 kts 40°
2026-04-12 10:06 14.93095 120.44611 1627 ft 120 kts 40°
2026-04-12 10:06 14.93727 120.45172 1626 ft 120 kts 40°
2026-04-12 10:06 14.94357 120.45731 1626 ft 119 kts 40°
2026-04-12 10:06 14.94988 120.46291 1627 ft 119 kts 40°
2026-04-12 10:07 14.95619 120.46849 1626 ft 119 kts 40°
2026-04-12 10:07 14.96251 120.47408 1627 ft 119 kts 40°
2026-04-12 10:07 14.96881 120.47966 1627 ft 119 kts 40°
2026-04-12 10:07 14.97512 120.48524 1627 ft 119 kts 40°
2026-04-12 10:08 14.98145 120.49083 1627 ft 120 kts 40°
2026-04-12 10:08 14.98778 120.49640 1627 ft 119 kts 39°
2026-04-12 10:08 14.99425 120.50180 1627 ft 119 kts 38°
2026-04-12 10:08 15.00074 120.50715 1627 ft 120 kts 38°
2026-04-12 10:09 15.00725 120.51251 1626 ft 119 kts 38°
2026-04-12 10:09 15.01374 120.51787 1626 ft 119 kts 38°
2026-04-12 10:09 15.02024 120.52322 1627 ft 119 kts 38°
2026-04-12 10:09 15.02674 120.52858 1627 ft 119 kts 38°
2026-04-12 10:10 15.03322 120.53391 1578 ft 119 kts 37°
2026-04-12 10:10 15.03967 120.53914 1328 ft 117 kts 37°
2026-04-12 10:10 15.04610 120.54433 1211 ft 118 kts 37°
2026-04-12 10:10 15.05257 120.54957 1164 ft 118 kts 38°
2026-04-12 10:11 15.05902 120.55483 1146 ft 118 kts 38°
2026-04-12 10:11 15.06539 120.56006 1137 ft 118 kts 38°
2026-04-12 10:11 15.07185 120.56536 1132 ft 119 kts 38°
2026-04-12 10:11 15.07827 120.57062 1143 ft 112 kts 37°
2026-04-12 10:12 15.08376 120.57496 1141 ft 87 kts 37°
2026-04-12 10:12 15.08839 120.57853 1125 ft 84 kts 37°
2026-04-12 10:12 15.09306 120.58227 1125 ft 85 kts 37°
2026-04-12 10:12 15.09767 120.58604 1120 ft 84 kts 37°
2026-04-12 10:13 15.10076 120.58857 1138 ft 80 kts 37°
2026-04-12 10:13 15.10612 120.59293 1019 ft 68 kts 36°
2026-04-12 10:13 15.10941 120.59557 754 ft 51 kts 36°
2026-04-12 10:13 15.11112 120.59696 673 ft 44 kts 37°
2026-04-12 10:14 15.11351 120.59894 623 ft 43 kts 37°
2026-04-12 10:14 15.11552 120.60064 582 ft 35 kts 37°
2026-04-12 10:14 15.11740 120.60227 563 ft 36 kts 37°
2026-04-12 10:14 15.11890 120.60383 484 ft 22 kts 74°
2026-04-12 10:15 15.11886 120.60445 398 ft 2 kts 164°
2026-04-12 10:15 15.11888 120.60445 400 ft 1 kts 164°
2026-04-12 10:15 15.11888 120.60443 400 ft 0 kts 164°
2026-04-12 10:15 15.11888 120.60442 399 ft 0 kts 164°
2026-04-12 10:16 15.11886 120.60444 383 ft 2 kts 165°
2026-04-12 10:16 15.11855 120.60452 335 ft 7 kts 166°
2026-04-12 10:16 15.11819 120.60474 310 ft 6 kts 166°
2026-04-12 10:16 15.11793 120.60493 272 ft 2 kts 167°
2026-04-12 10:17 15.11788 120.60496 254 ft 0 kts 165°
2026-04-12 10:19 15.11792 120.60498 283 ft 1 kts 156°
2026-04-12 10:20 15.11775 120.60498 329 ft 4 kts 156°
2026-04-12 10:20 15.11696 120.60517 395 ft 25 kts 156°
2026-04-12 10:20 15.11454 120.60501 427 ft 49 kts 211°
2026-04-12 10:20 15.11156 120.60324 520 ft 44 kts 213°
2026-04-12 10:21 15.10979 120.60244 520 ft 9 kts 206°
2026-04-12 10:21 15.10969 120.60243 532 ft 0 kts 206°
2026-04-12 10:21 15.10971 120.60241 534 ft 0 kts 206°
2026-04-12 10:22 15.10970 120.60241 533 ft 0 kts 206°
2026-04-12 10:22 15.10959 120.60232 534 ft 11 kts 206°
2026-04-12 10:22 15.10803 120.60137 664 ft 37 kts 206°
2026-04-12 10:23 15.10496 120.59996 753 ft 59 kts 196°
2026-04-12 10:23 15.10024 120.60160 781 ft 91 kts 141°
2026-04-12 10:23 15.09486 120.60681 800 ft 118 kts 134°
2026-04-12 10:23 15.08918 120.61264 822 ft 113 kts 134°
2026-04-12 10:24 15.08372 120.61848 822 ft 113 kts 134°
2026-04-12 10:24 15.07830 120.62439 824 ft 113 kts 134°
2026-04-12 10:24 15.07266 120.63022 822 ft 119 kts 124°
2026-04-12 10:24 15.06532 120.63501 829 ft 127 kts 131°
2026-04-12 10:25 15.05779 120.63907 836 ft 116 kts 137°
2026-04-12 10:25 15.05085 120.64398 822 ft 124 kts 135°
2026-04-12 10:25 15.04411 120.64939 829 ft 121 kts 129°
2026-04-12 10:25 15.03845 120.65582 823 ft 121 kts 124°
2026-04-12 10:26 15.03319 120.66263 824 ft 121 kts 123°
2026-04-12 10:26 15.02815 120.66958 825 ft 120 kts 123°
2026-04-12 10:26 15.02328 120.67660 824 ft 120 kts 126°
2026-04-12 10:26 15.01834 120.68357 825 ft 120 kts 126°
2026-04-12 10:27 15.01346 120.69057 826 ft 120 kts 126°
2026-04-12 10:27 15.00863 120.69759 826 ft 120 kts 126°
2026-04-12 10:27 15.00379 120.70462 827 ft 120 kts 126°
2026-04-12 10:27 14.99897 120.71164 826 ft 120 kts 126°
2026-04-12 10:28 14.99416 120.71867 826 ft 120 kts 126°
2026-04-12 10:28 14.98934 120.72571 826 ft 120 kts 126°
2026-04-12 10:28 14.98445 120.73269 826 ft 120 kts 127°
2026-04-12 10:28 14.97950 120.73965 826 ft 120 kts 127°
2026-04-12 10:29 14.97456 120.74659 827 ft 120 kts 127°
2026-04-12 10:29 14.96961 120.75356 826 ft 120 kts 127°
2026-04-12 10:29 14.96455 120.76041 827 ft 120 kts 130°
2026-04-12 10:29 14.95920 120.76702 827 ft 120 kts 131°
2026-04-12 10:30 14.95381 120.77360 827 ft 120 kts 131°
2026-04-12 10:30 14.94842 120.78018 826 ft 120 kts 131°
2026-04-12 10:30 14.94298 120.78672 827 ft 120 kts 133°
2026-04-12 10:30 14.93733 120.79303 826 ft 120 kts 134°
2026-04-12 10:31 14.93162 120.79932 826 ft 120 kts 134°
2026-04-12 10:31 14.92599 120.80553 827 ft 120 kts 133°
2026-04-12 10:31 14.92072 120.81190 848 ft 107 kts 129°
2026-04-12 10:31 14.91689 120.81738 839 ft 83 kts 124°
2026-04-12 10:32 14.91381 120.82250 826 ft 84 kts 122°
2026-04-12 10:32 14.91098 120.82782 828 ft 84 kts 117°
2026-04-12 10:32 14.90826 120.83307 731 ft 84 kts 119°
2026-04-12 10:32 14.90550 120.83835 671 ft 84 kts 119°
2026-04-12 10:33 14.90268 120.84370 630 ft 84 kts 119°
2026-04-12 10:33 14.89974 120.84872 394 ft 74 kts 140°
2026-04-12 10:33 14.89669 120.85062 228 ft 24 kts 154°
2026-04-12 10:33 14.89621 120.85096 206 ft 3 kts 155°
2026-04-12 10:34 14.89606 120.85110 189 ft 9 kts 155°
2026-04-12 10:34 14.89547 120.85124 176 ft 9 kts 155°
2026-04-12 10:34 14.89441 120.85163 143 ft 24 kts 155°
2026-04-12 10:34 14.89286 120.85244 95 ft 13 kts 153°
2026-04-12 10:35 14.89258 120.85293 84 ft 7 kts 154°
2026-04-12 10:35 14.89242 120.85310 60 ft 2 kts 154°
2026-04-12 10:35 14.89232 120.85319 57 ft 1 kts 154°
2026-04-12 10:35 14.89227 120.85323 56 ft 1 kts 155°
2026-04-12 10:36 14.89222 120.85328 54 ft 1 kts 154°
2026-04-12 10:36 14.89215 120.85330 52 ft 1 kts 155°
2026-04-12 10:36 14.89209 120.85333 49 ft 1 kts 154°
2026-04-12 10:36 14.89206 120.85335 43 ft 1 kts 154°
2026-04-12 10:37 14.89205 120.85334 35 ft 0 kts 152°